[[{"header":{"parameterUnit":"m.s-1","parameterCategory":2,"la1":30.2992,"la2":30.254,"lo1":-89.0895,"lo2":-89.0443,"dy":0.0025,"dx":0.0025,"nx":19,"ny":19,"refTime":"2026-05-02T21:00:00:Z","depth":"0","parameterNumber":2,"parameterNumberName":"U-component_of_CURRENTS"},"data":[0,0,0,0.2971,0.2973,0.3051,0.3052,0.3116,0.3117,0,0,0,0,0,0,0,0,0,0,0,0.2934,0.2934,0.2971,0.2973,0.3051,0.3052,0.3116,0.3117,0,0,0,0,0,0,0,0,0,0,0,0.2933,0.2934,0.2935,0.2974,0.3051,0.3052,0.3116,0.3062,0,0,0,0,0,0,0,0,0,0,0.2989,0.2959,0.2934,0.2935,0.2974,0.3051,0.3052,0.306,0.3065,0.3075,0,0.3092,0,0.3117,0.3121,0.3122,0,0,0,0.2959,0.2954,0.2986,0.2935,0.2975,0.3051,0.3012,0.3063,0.3069,0.3082,0.3093,0.3097,0.3118,0.3122,0.3122,0.3243,0.3244,0,0,0.2955,0.2936,0.2982,0.299,0.3003,0.301,0.3015,0.3067,0.3069,0.3094,0.3098,0.3119,0.3122,0.3123,0.3242,0.3243,0,0,0,0.2952,0.2933,0.2964,0.2987,0.3011,0.3012,0.3018,0.3067,0.3081,0.3099,0.312,0.3123,0.3124,0.3241,0.3242,0.329,0,0,0,0.2949,0.2932,0.2962,0.2949,0.301,0.3044,0.3016,0.3076,0.3084,0.3119,0.3123,0.3124,0.324,0.3242,0.3287,0.3296,0,0,0,0.2929,0.293,0.2944,0.2949,0.2992,0.3044,0.306,0.3078,0.3097,0.3122,0.3124,0.324,0.3242,0.3284,0.3292,0.34,0,0,0,0.2899,0.2919,0.2943,0.2978,0.2991,0.3069,0.306,0.3102,0.3124,0.3123,0.3241,0.3242,0.3283,0.3289,0.3396,0.3399,0.3418,0,0,0.2907,0.2919,0.2943,0.2967,0.3038,0.3057,0.3138,0.3152,0.3158,0.3216,0.3219,0.3288,0.3291,0.3399,0.3508,0.3523,0,0,0,0.2935,0.2952,0.2981,0.3027,0.3086,0.3149,0.3179,0.3209,0.3263,0.3185,0.3313,0.3314,0.3381,0.3375,0.3388,0.3417,0.3251,0.3251,0.3251,0.2901,0.295,0.2994,0.3066,0.3125,0.3213,0.3271,0.332,0.3315,0.3354,0.3372,0.3508,0.3502,0.3512,0.3542,0.34,0.34,0.3401,0.3401,0.2903,0.2924,0.3002,0.3057,0.3145,0.3216,0.3355,0.3381,0.3503,0.3451,0.3515,0.3447,0.3528,0.3556,0.3404,0.3404,0.3403,0.3403,0.3403,0.2858,0.2876,0.2917,0.3005,0.31,0.3219,0.3358,0.3471,0.3537,0.3601,0.3642,0.3641,0.3652,0.3656,0.3657,0.3657,0.3658,0.3658,0.3659,0.2781,0.2831,0.2858,0.2966,0.3019,0.316,0.3375,0.3483,0.365,0.37,0.3701,0.3709,0.3587,0.3561,0.3667,0.3665,0.3664,0.3664,0.3663,0.2721,0.2748,0.2785,0.2829,0.2963,0.305,0.3297,0.3544,0.3701,0.3777,0.3864,0.3776,0.377,0.3759,0.3739,0.3885,0.3885,0.3885,0.3885,0.2665,0.2689,0.2709,0.2751,0.2847,0.2993,0.3122,0.338,0.3731,0.3882,0.3973,0.3902,0.3892,0.3889,0.3875,0.3855,0.4028,0.4028,0.4028,0.2621,0.2642,0.2618,0.267,0.2765,0.2878,0.295,0.3175,0.3724,0.4037,0.4023,0.4017,0.3911,0.3892,0.3878,0.3856,0.3819,0,0]},{"header":{"parameterUnit":"m.s-1","parameterCategory":2,"la1":30.2992,"la2":30.254,"lo1":-89.0895,"lo2":-89.0443,"dy":0.0025,"dx":0.0025,"nx":19,"ny":19,"refTime":"2026-05-02T21:00:00:Z","depth":"0","parameterNumber":3,"parameterNumberName":"V-component_of_CURRENTS"},"data":[0,0,0,-0.0116,-0.0116,-0.0157,-0.0157,-0.0217,-0.0218,0,0,0,0,0,0,0,0,0,0,0,-0.01,-0.01,-0.0116,-0.0117,-0.0157,-0.0157,-0.0217,-0.0218,0,0,0,0,0,0,0,0,0,0,0,-0.01,-0.01,-0.01,-0.0117,-0.0157,-0.0157,-0.0217,-0.0187,0,0,0,0,0,0,0,0,0,0,-0.0147,-0.0126,-0.01,-0.01,-0.0117,-0.0157,-0.0157,-0.0185,-0.0188,-0.0199,0,-0.0199,0,-0.0207,-0.0221,-0.0222,0,0,0,-0.0124,-0.0123,-0.0135,-0.01,-0.0117,-0.0157,-0.0141,-0.0187,-0.0191,-0.0204,-0.02,-0.0202,-0.0208,-0.0222,-0.0222,-0.0208,-0.0207,0,0,-0.0122,-0.0109,-0.0132,-0.0137,-0.0119,-0.0139,-0.0142,-0.0189,-0.0189,-0.02,-0.0203,-0.0209,-0.0222,-0.0222,-0.0208,-0.0208,0,0,0,-0.011,-0.0108,-0.0118,-0.0135,-0.014,-0.014,-0.0143,-0.0187,-0.0191,-0.0204,-0.021,-0.0222,-0.0223,-0.0209,-0.0208,-0.0095,0,0,0,-0.011,-0.0101,-0.0117,-0.011,-0.0139,-0.0162,-0.014,-0.0188,-0.0193,-0.021,-0.0222,-0.0224,-0.021,-0.0209,-0.0099,-0.0023,0,0,0,-0.01,-0.01,-0.0102,-0.011,-0.0124,-0.0162,-0.0168,-0.0189,-0.0197,-0.0222,-0.0224,-0.021,-0.0209,-0.0103,-0.0031,0.0021,0,0,0,-0.009,-0.0055,-0.0101,-0.0063,-0.0123,-0.0098,-0.0168,-0.0168,-0.0181,-0.0223,-0.021,-0.0208,-0.0104,-0.0035,0.0017,0.0121,0.0151,0,0,-0.0032,-0.0048,-0.0023,-0.0064,-0.0004,-0.0094,-0.0045,-0.0104,-0.0167,-0.0198,-0.0198,-0.0098,-0.0031,0.002,0.0196,0.0224,0,0,0,0.0006,0.0029,0.0038,0.0056,0.0044,0.0049,-0.0021,-0.0056,-0.009,-0.0169,-0.0103,-0.0064,-0.0036,0.0017,0.0039,-0.0101,-0.0202,-0.0202,-0.0203,0.0108,0.0107,0.017,0.0172,0.0179,0.0142,0.0135,0.0073,-0.0008,-0.001,0.0023,0.0138,0.0195,0.0213,0.0066,0.0002,0.0003,0.0003,0.0003,0.0226,0.0272,0.027,0.0325,0.0316,0.0334,0.028,0.0223,0.021,0.0122,0.0143,0.0129,0.0245,0.0079,0.0011,0.0009,0.0008,0.0008,0.0007,0.0302,0.033,0.0348,0.0428,0.0483,0.0455,0.0531,0.0451,0.0332,0.036,0.0381,0.038,0.0238,0.0358,0.0358,0.0359,0.0359,0.036,0.036,0.0373,0.0401,0.0476,0.0545,0.0607,0.0686,0.068,0.0681,0.0622,0.0536,0.0536,0.0274,0.0245,0.0236,0.0369,0.0367,0.0366,0.0365,0.0365,0.0483,0.048,0.0607,0.0679,0.0844,0.1016,0.0982,0.1007,0.0947,0.0942,0.0556,0.0613,0.0587,0.0568,0.0566,0.0777,0.0777,0.0777,0.0777,0.0551,0.0561,0.0739,0.0885,0.1063,0.1176,0.1384,0.1354,0.1027,0.0825,0.0642,0.0558,0.0548,0.0511,0.0493,0.0484,0.067,0.0669,0.0669,0.0634,0.0678,0.0826,0.0959,0.1165,0.1369,0.1596,0.1657,0.1105,0.0641,0.0427,0.0431,0.0276,0.0271,0.0181,0.0168,0.0141,0,0]}],[{"header":{"parameterUnit":"m.s-1","parameterCategory":2,"la1":30.2992,"la2":30.254,"lo1":-89.0895,"lo2":-89.0443,"dy":0.0025,"dx":0.0025,"nx":19,"ny":19,"refTime":"2026-05-02T21:00:00:Z","depth":"2","parameterNumber":2,"parameterNumberName":"U-component_of_CURRENTS"},"data":[0,0,0,0.2882,0.2884,0.297,0.297,0.3038,0.3038,0,0,0,0,0,0,0,0,0,0,0,0.2844,0.2845,0.2882,0.2884,0.297,0.297,0.3038,0.3038,0,0,0,0,0,0,0,0,0,0,0,0.2844,0.2844,0.2845,0.2885,0.297,0.297,0.3037,0.298,0,0,0,0,0,0,0,0,0,0,0.29,0.2871,0.2844,0.2845,0.2885,0.297,0.297,0.2978,0.2984,0.2991,0,0.3011,0,0.3036,0.3043,0.3043,0,0,0,0.2871,0.2866,0.2899,0.2846,0.2886,0.297,0.2928,0.2981,0.2988,0.2999,0.3013,0.3016,0.3037,0.3044,0.3044,0.3163,0.3164,0,0,0.2866,0.2848,0.2895,0.2904,0.2918,0.2925,0.293,0.2986,0.2989,0.3013,0.3018,0.3038,0.3044,0.3045,0.3162,0.3163,0,0,0,0.2862,0.2844,0.2877,0.29,0.2925,0.2928,0.2934,0.2986,0.3001,0.3019,0.3039,0.3044,0.3045,0.3161,0.3163,0.3212,0,0,0,0.2858,0.2843,0.2875,0.2863,0.2924,0.2962,0.2933,0.2996,0.3004,0.3039,0.3044,0.3046,0.316,0.3162,0.3208,0.3218,0,0,0,0.2838,0.2841,0.2856,0.2862,0.2908,0.2962,0.2979,0.2999,0.3017,0.3043,0.3046,0.316,0.3162,0.3206,0.3213,0.3317,0,0,0,0.2809,0.2831,0.2855,0.2892,0.2907,0.2985,0.2979,0.3023,0.3046,0.3045,0.3161,0.3162,0.3205,0.3211,0.3313,0.3293,0.3309,0,0,0.2818,0.2831,0.2855,0.288,0.2951,0.2972,0.3053,0.3072,0.3079,0.3135,0.3138,0.3209,0.3213,0.3316,0.3399,0.3411,0,0,0,0.2847,0.2865,0.2893,0.294,0.2999,0.3063,0.3096,0.3126,0.3183,0.3107,0.3233,0.3234,0.3298,0.3278,0.3289,0.3171,0.3171,0.3171,0.3171,0.2818,0.2865,0.2909,0.2979,0.3038,0.3127,0.3185,0.3235,0.3233,0.3273,0.3292,0.3425,0.3404,0.3412,0.3319,0.332,0.332,0.332,0.332,0.2822,0.2843,0.2918,0.2974,0.3061,0.3132,0.3269,0.3296,0.3418,0.3369,0.343,0.3351,0.3426,0.3324,0.3324,0.3323,0.3323,0.3322,0.3322,0.278,0.2798,0.2839,0.2927,0.3022,0.3139,0.3276,0.3388,0.3454,0.3516,0.354,0.3538,0.3461,0.3571,0.3572,0.3572,0.3572,0.3573,0.3573,0.2707,0.2757,0.2786,0.2892,0.2946,0.3086,0.3296,0.3399,0.3553,0.3596,0.3597,0.351,0.3502,0.3477,0.3581,0.358,0.3579,0.3578,0.3577,0.2651,0.2679,0.2716,0.2762,0.2893,0.2965,0.3213,0.344,0.3593,0.3657,0.3663,0.3658,0.3649,0.3639,0.3619,0.3754,0.3754,0.3754,0.3754,0.2598,0.2622,0.2643,0.2685,0.2777,0.2903,0.2979,0.3137,0.3405,0.348,0.349,0.3386,0.3387,0.3356,0.3352,0.3322,0.338,0.3379,0.3377,0.2556,0.2577,0.2556,0.2606,0.2696,0.2776,0.2749,0.2715,0.2981,0.335,0.3297,0.3753,0.3627,0.3618,0.3588,0.3576,0.3535,0,0]},{"header":{"parameterUnit":"m.s-1","parameterCategory":2,"la1":30.2992,"la2":30.254,"lo1":-89.0895,"lo2":-89.0443,"dy":0.0025,"dx":0.0025,"nx":19,"ny":19,"refTime":"2026-05-02T21:00:00:Z","depth":"2","parameterNumber":3,"parameterNumberName":"V-component_of_CURRENTS"},"data":[0,0,0,-0.0018,-0.0018,-0.0063,-0.0063,-0.0121,-0.0122,0,0,0,0,0,0,0,0,0,0,0,-0.0001,-0.0001,-0.0018,-0.0018,-0.0063,-0.0063,-0.0121,-0.0122,0,0,0,0,0,0,0,0,0,0,0,-0.0001,-0.0001,-0.0001,-0.0019,-0.0063,-0.0063,-0.0121,-0.0089,0,0,0,0,0,0,0,0,0,0,-0.0046,-0.0026,-0.0001,-0.0001,-0.0019,-0.0063,-0.0063,-0.0088,-0.0091,-0.0099,0,-0.01,0,-0.011,-0.0125,-0.0125,0,0,0,-0.0026,-0.0023,-0.0036,-0.0001,-0.0019,-0.0063,-0.0045,-0.009,-0.0093,-0.0104,-0.0101,-0.0104,-0.0111,-0.0125,-0.0126,-0.011,-0.0109,0,0,-0.0023,-0.0011,-0.0033,-0.0038,-0.0024,-0.0043,-0.0046,-0.0092,-0.0093,-0.0102,-0.0105,-0.0112,-0.0126,-0.0126,-0.011,-0.011,0,0,0,-0.0011,-0.0009,-0.0021,-0.0035,-0.0042,-0.0045,-0.0048,-0.0091,-0.0095,-0.0106,-0.0113,-0.0126,-0.0127,-0.0111,-0.011,-0.0002,0,0,0,-0.001,-0.0002,-0.0019,-0.0013,-0.0041,-0.0067,-0.0046,-0.0091,-0.0097,-0.0112,-0.0126,-0.0127,-0.0112,-0.0111,-0.0006,0.0069,0,0,0,0.0,-0.0001,-0.0004,-0.0012,-0.0028,-0.0066,-0.0073,-0.0093,-0.0101,-0.0125,-0.0127,-0.0112,-0.0111,-0.0009,0.0061,0.0109,0,0,0,0.0011,0.0043,-0.0003,0.0033,-0.0028,-0.0004,-0.0073,-0.0073,-0.0086,-0.0126,-0.0112,-0.011,-0.0011,0.0056,0.0104,0.0197,0.0225,0,0,0.0066,0.005,0.0074,0.0032,0.0091,0.0001,0.0049,-0.001,-0.0072,-0.01,-0.0099,-0.0004,0.006,0.0108,0.027,0.0296,0,0,0,0.0102,0.0124,0.0133,0.0149,0.0137,0.0141,0.0071,0.0037,0.0003,-0.0074,-0.0009,0.0029,0.0055,0.0101,0.0122,-0.0104,-0.0104,-0.0105,-0.0105,0.0199,0.0198,0.026,0.0262,0.0269,0.0232,0.0224,0.0163,0.0083,0.0081,0.0113,0.0222,0.0272,0.0288,0.0092,0.0092,0.0093,0.0093,0.0093,0.0313,0.0358,0.0357,0.0411,0.0401,0.0418,0.0365,0.0308,0.0294,0.0208,0.0227,0.0208,0.0318,0.0102,0.01,0.0099,0.0098,0.0098,0.0097,0.0385,0.0413,0.043,0.0509,0.0562,0.0534,0.0608,0.0529,0.0411,0.0437,0.0449,0.0448,0.0296,0.0432,0.0432,0.0433,0.0433,0.0434,0.0434,0.0452,0.048,0.0553,0.0621,0.0682,0.0758,0.0751,0.075,0.0685,0.0598,0.0598,0.0336,0.0325,0.0315,0.0443,0.0441,0.044,0.0439,0.0439,0.0557,0.0554,0.0679,0.0749,0.0911,0.1073,0.1042,0.1054,0.0994,0.0982,0.0675,0.0667,0.0641,0.0623,0.062,0.082,0.082,0.082,0.082,0.0623,0.0632,0.0806,0.0949,0.1123,0.1228,0.1402,0.133,0.1122,0.096,0.0954,0.0896,0.0878,0.086,0.0836,0.0834,0.109,0.109,0.109,0.0703,0.0746,0.0889,0.102,0.1223,0.1409,0.1579,0.15,0.1182,0.1096,0.095,0.0848,0.0741,0.0721,0.0668,0.0641,0.0626,0,0]}],[{"header":{"parameterUnit":"m.s-1","parameterCategory":2,"la1":30.2992,"la2":30.254,"lo1":-89.0895,"lo2":-89.0443,"dy":0.0025,"dx":0.0025,"nx":19,"ny":19,"refTime":"2026-05-02T21:00:00:Z","depth":"4","parameterNumber":2,"parameterNumberName":"U-component_of_CURRENTS"},"data":[0,0,0,0.1958,0.1963,0.2177,0.2178,0.2342,0.2343,0,0,0,0,0,0,0,0,0,0,0,0.1891,0.1892,0.1958,0.1963,0.2177,0.2178,0.2341,0.2343,0,0,0,0,0,0,0,0,0,0,0,0.189,0.1892,0.1894,0.1964,0.2176,0.2178,0.2341,0.2207,0,0,0,0,0,0,0,0,0,0,0.2012,0.1967,0.1891,0.1894,0.1965,0.2176,0.2178,0.2201,0.2215,0.2214,0,0.2263,0,0.2303,0.2351,0.2352,0,0,0,0.1962,0.1956,0.2013,0.1894,0.1967,0.2176,0.208,0.221,0.2225,0.2231,0.2266,0.2273,0.2306,0.2352,0.2353,0.2512,0.2513,0,0,0.195,0.1926,0.2003,0.2023,0.2042,0.2073,0.2087,0.222,0.2242,0.2267,0.2277,0.2309,0.2353,0.2354,0.2512,0.2513,0,0,0,0.1917,0.1918,0.1974,0.2015,0.2062,0.2079,0.2095,0.2236,0.2256,0.2279,0.2311,0.2354,0.2355,0.2511,0.2512,0.2567,0,0,0,0.191,0.1899,0.1969,0.1956,0.206,0.2167,0.2107,0.2247,0.2264,0.231,0.2354,0.2357,0.251,0.2511,0.2563,0.2573,0,0,0,0.1877,0.1895,0.1926,0.1954,0.2047,0.2166,0.2195,0.2252,0.2282,0.2352,0.2357,0.2509,0.2511,0.256,0.2569,0.2655,0,0,0,0.1835,0.1879,0.1926,0.1991,0.2045,0.2168,0.2194,0.2297,0.236,0.2354,0.251,0.2512,0.2559,0.2566,0.2651,0.2318,0,0,0,0.1854,0.1881,0.1917,0.1964,0.2067,0.2137,0.2259,0.2353,0.2385,0.2456,0.2461,0.2564,0.2569,0.2654,0.2431,0,0,0,0,0.1899,0.1931,0.1971,0.2051,0.2143,0.2251,0.235,0.2403,0.2514,0.2434,0.2587,0.2588,0.2641,0.2436,0.2521,0.2521,0.2521,0.252,0.252,0.1877,0.1937,0.2006,0.2102,0.2193,0.234,0.2433,0.2526,0.2552,0.2618,0.265,0.2773,0.2559,0.2677,0.2678,0.2678,0.2678,0.2678,0.2678,0.1884,0.1913,0.2026,0.2118,0.2245,0.2364,0.2534,0.2594,0.2747,0.2724,0.2773,0.2528,0.2684,0.2683,0.2682,0.2682,0.2681,0.2681,0.2681,0.1833,0.1854,0.1942,0.2083,0.2235,0.2399,0.2545,0.2696,0.2791,0.2858,0.2683,0.2827,0.2805,0.2914,0.2914,0.2914,0.2915,0.2915,0.2915,0.1727,0.1813,0.1887,0.2055,0.2154,0.2331,0.2581,0.267,0.2817,0.271,0.2899,0.2853,0.2845,0.282,0.2922,0.2921,0.292,0.292,0.2919,0.1638,0.1702,0.1786,0.1882,0.2084,0.2188,0.2464,0.2562,0.2646,0.2623,0.2637,0.2649,0.2604,0.2604,0.2567,0.2599,0.2595,0.2591,0,0.1563,0.1603,0.1696,0.1787,0.1887,0.2086,0.2113,0.2257,0.2397,0.2319,0.2646,0.2659,0.2665,0.261,0.2603,0.2556,0,0,0,0.1504,0.1547,0.1568,0.1679,0.1773,0.1898,0.2106,0.2083,0.2375,0.2349,0.2494,0.2519,0.2744,0.2943,0.2904,0.2895,0.2852,0,0]},{"header":{"parameterUnit":"m.s-1","parameterCategory":2,"la1":30.2992,"la2":30.254,"lo1":-89.0895,"lo2":-89.0443,"dy":0.0025,"dx":0.0025,"nx":19,"ny":19,"refTime":"2026-05-02T21:00:00:Z","depth":"4","parameterNumber":3,"parameterNumberName":"V-component_of_CURRENTS"},"data":[0,0,0,0.0154,0.0153,0.0114,0.0113,0.0062,0.0062,0,0,0,0,0,0,0,0,0,0,0,0.017,0.017,0.0154,0.0153,0.0114,0.0113,0.0062,0.0062,0,0,0,0,0,0,0,0,0,0,0,0.017,0.017,0.017,0.0153,0.0114,0.0113,0.0062,0.0091,0,0,0,0,0,0,0,0,0,0,0.0129,0.0147,0.017,0.017,0.0153,0.0114,0.0113,0.0092,0.0089,0.0082,0,0.0082,0,0.0073,0.0059,0.0059,0,0,0,0.0146,0.015,0.0139,0.017,0.0153,0.0114,0.013,0.009,0.0087,0.0078,0.0081,0.0079,0.0072,0.0059,0.0059,0.0064,0.0064,0,0,0.0149,0.016,0.0141,0.0137,0.015,0.0131,0.0128,0.0088,0.0088,0.0081,0.0078,0.0071,0.0059,0.0058,0.0064,0.0064,0,0,0,0.016,0.0162,0.0152,0.0139,0.0133,0.013,0.0127,0.009,0.0086,0.0077,0.0071,0.0058,0.0058,0.0063,0.0064,0.0149,0,0,0,0.0161,0.0169,0.0153,0.0159,0.0134,0.0111,0.013,0.0089,0.0084,0.0071,0.0058,0.0057,0.0063,0.0063,0.0146,0.0208,0,0,0,0.017,0.017,0.0167,0.016,0.0146,0.0112,0.0106,0.0088,0.0081,0.0059,0.0057,0.0062,0.0063,0.0143,0.0202,0.0226,0,0,0,0.018,0.0202,0.0168,0.0193,0.0146,0.016,0.0106,0.0102,0.009,0.0058,0.0063,0.0064,0.0143,0.0198,0.0223,0.0249,0,0,0,0.0219,0.0207,0.0224,0.0193,0.0233,0.0164,0.0196,0.0148,0.0099,0.0074,0.0074,0.0147,0.0201,0.0225,0.03,0,0,0,0,0.0244,0.0259,0.0265,0.0276,0.0265,0.0267,0.0211,0.0183,0.0153,0.0096,0.0141,0.0173,0.0185,0.019,0.0068,0.0068,0.0068,0.0068,0.0068,0.0312,0.0312,0.0357,0.036,0.0363,0.0333,0.0324,0.0274,0.0213,0.021,0.0237,0.0311,0.0319,0.0216,0.0217,0.0217,0.0218,0.0218,0.0218,0.0391,0.0422,0.0428,0.047,0.0466,0.0478,0.0431,0.0386,0.037,0.0309,0.0315,0.0274,0.0226,0.0225,0.0224,0.0223,0.0222,0.0221,0.0221,0.0437,0.0458,0.048,0.0545,0.0592,0.0572,0.0621,0.0561,0.0462,0.0478,0.0451,0.0369,0.0367,0.0468,0.0469,0.0469,0.0469,0.047,0.047,0.0477,0.0505,0.0567,0.0629,0.0684,0.0741,0.0737,0.0718,0.0623,0.0571,0.0505,0.0395,0.0387,0.0381,0.0476,0.0475,0.0474,0.0473,0.0473,0.0537,0.0548,0.0646,0.071,0.0841,0.0889,0.0893,0.0827,0.0807,0.0738,0.06,0.0592,0.0563,0.055,0.0548,0.0697,0.0698,0.0699,0,0.0575,0.0588,0.0724,0.0839,0.0953,0.0981,0.0988,0.0945,0.0805,0.0791,0.0779,0.0626,0.0618,0.0586,0.0576,0.0576,0,0,0,0.0621,0.0659,0.0763,0.0872,0.1002,0.0999,0.099,0.0953,0.0832,0.0805,0.0717,0.0712,0.0615,0.0494,0.043,0.042,0.0407,0,0]}]]